Flag for Germany Weather past 2 weeks in Gladbeck, North Rhine-Westphalia, Germany

Now
36 °F

Low clouds.


Feels Like: 33 °F
Forecast: 36 / 42 °F
Wind: 3 mph from Southwest

Location: Duesseldorf

Current Time: Jan 25, 2015 at 2:12:20 PM

Latest Report: Jan 25, 2015 at 2:00 PM


Visibility: 3 mi

Pressure: 30.40 "Hg

Humidity: 91%

Dew point: 34 °F

Location of GladbeckLocation

Historic Weather in Gladbeck — Graph

°F

Gladbeck temperature yesterday

Maximum temperature yesterday: 37 °F (at 5:00 PM)
Minimum temperature yesterday: 30 °F (at 5:00 AM)
Average temperature yesterday: 33 °F

Past Weeks' High & Low Weather Summary

 TemperatureHumidityPressure
High55 °F (Jan 10, 1:00 PM)100% (Jan 17, 8:00 AM)30.44 "Hg (Jan 17, 8:00 AM)
Low25 °F (Jan 25, 2:00 AM)58% (Jan 10, 8:00 PM)29.44 "Hg (Jan 15, 3:00 PM)
Average38 °F80%29.95 "Hg
* Reported Jan 10 1:00 PM — Jan 25 1:00 PM, Gladbeck, Weather by CustomWeather, © 2014

Note: Actual official high and low records may vary slightly from our data, if they occured in-between our weather recording intervals... More about our weather records

Advertising

Gladbeck weather history for previous 24 hours

 ConditionsComfort  
Time TempWeatherWind HumidityBarometerVisibility
1:00 PM
Jan 25
36 °FFog.3 mph92%30.41 "Hg3 mi
12:00 PM35 °FFog.3 mph92%30.43 "Hg2 mi
11:00 AM35 °FFog.2 mph94%30.44 "Hg2 mi
9:00 AM31 °FFog.2 mph96%30.43 "Hg2 mi
8:00 AM31 °FFog.2 mph96%30.41 "Hg2 mi
7:00 AM29 °FFog.2 mph97%30.40 "Hg2 mi
6:00 AM27 °FFog.1 mph98%30.40 "Hg4 mi
3:00 AM26 °FFog.1 mph100%30.37 "Hg0 mi
2:00 AM25 °FFog.1 mph97%30.36 "Hg0 mi
1:00 AM27 °FFog.1 mph98%30.35 "Hg9 mi
12:00 AM30 °FFog.1 mph98%30.34 "Hg12 mi
11:00 PM
Jan 24
33 °FPassing clouds.1 mph93%30.32 "Hg12 mi
9:00 PM34 °FPassing clouds.3 mph92%30.30 "Hg16 mi
8:00 PM35 °FPassing clouds.5 mph92%30.27 "Hg16 mi
7:00 PM36 °FPassing clouds.5 mph92%30.25 "Hg16 mi
6:00 PM36 °FPassing clouds.3 mph90%30.21 "Hg16 mi
5:00 PM37 °FPartly sunny.3 mph88%30.18 "Hg12 mi
4:00 PM36 °FFog.1 mph91%30.15 "Hg4 mi
3:00 PM36 °FFog.1 mph91%30.12 "Hg3 mi
2:00 PM33 °FLow clouds.1 mph97%30.11 "Hg3 mi
Weather by CustomWeather, © 2014

See weather overviewHow to use our weather pages